Dewpoint
14 13 11 7 10 16 18 15 18 20 22 23 26 28 25 26 26 24 32 35 33 30 28 33 35 35 35 35 33 31 38 45 53 52 54 55 57 59 60 61 60 63 63 65 65 66 64 65 66 67 69 71 72 71 72 75 76 74 74 75 76 76 77
12 12 12 9 8 13 17 16 16 20 22 22 27 22 27 27 22 24 23 30 29 28 28 32 29 27 25 28 31 26 34 42 50 51 54 57 56 58 61 63 63 63 63 65 64 62 63 64 65 68 70 71 73 73 73 74 75 75 74 75 76 76 77
11 13 14 10 9 9 14 18 20 18 22 25 28 27 23 23 24 24 24 26 28 26 30 28 28 27 26 30 32 29 26 36 49 50 53 56 57 57 60 61 62 63 63 64 65 60 60 64 67 68 70 71 72 73 73 70 72 73 73 72 75 77 78
12 13 9 11 10 12 13 16 19 21 24 26 26 28 28 28 24 24 22 23 28 31 28 26 29 32 32 26 28 27 26 34 49 51 51 55 57 58 58 59 61 63 62 60 59 58 57 60 65 66 68 68 67 70 73 71 70 74 74 73 75 77 77
10 10 9 6 10 10 11 12 15 18 20 23 24 25 24 26 24 23 24 20 25 30 28 26 30 32 33 30 29 32 31 31 32 50 52 54 58 58 59 59 61 62 61 58 55 58 58 59 64 65 64 66 65 66 68 70 71 71 72 73 74 77 76
9 7 9 7 6 8 12 9 14 17 17 22 23 23 23 23 25 27 20 21 29 28 25 31 28 30 28 30 31 30 29 27 37 36 53 55 57 60 60 60 59 59 62 59 56 58 60 59 61 64 63 63 64 64 65 68 67 69 69 72 75 77 77
10 5 7 10 5 4 6 12 13 14 18 22 22 24 25 23 21 21 24 22 26 29 31 33 32 30 24 28 26 28 27 32 30 38 48 56 60 61 59 60 58 59 61 62 60 61 63 63 64 65 65 63 63 64 64 67 68 68 67 69 73 77 77
17 14 8 8 8 3 1 7 11 11 12 15 19 21 27 25 22 24 24 26 23 29 41 37 29 36 28 34 30 33 29 30 34 39 55 59 62 64 61 60 58 60 60 63 66 65 67 67 67 66 66 67 65 65 65 66 68 68 68 67 71 76 76
23 20 20 10 7 7 4 -0 4 10 13 15 17 21 27 26 23 24 24 21 22 31 38 42 42 36 27 27 27 33 40 47 46 52 61 60 63 64 61 61 61 61 59 62 67 68 70 70 67 68 68 68 66 67 67 66 67 68 69 68 68 73 74
22 21 19 18 15 13 10 10 3 6 7 16 18 19 26 25 33 33 25 22 28 28 35 31 30 28 32 35 32 30 34 46 47 47 62 65 64 66 65 64 62 62 65 67 69 70 72 70 69 70 71 69 68 69 70 68 68 69 69 68 67 70 73
21 25 29 25 22 17 13 9 8 5 3 4 15 22 23 21 31 29 34 31 29 28 26 32 29 30 29 26 29 29 30 48 54 64 65 64 65 66 64 65 65 68 69 70 71 72 72 70 70 70 70 70 70 72 72 70 70 70 71 71 71 70 71
28 22 25 20 21 17 16 11 7 7 7 8 11 13 16 32 25 25 34 40 29 27 28 29 32 30 33 31 32 29 31 33 42 57 67 66 63 64 66 66 67 68 70 72 73 73 72 71 72 72 71 70 71 72 72 71 70 70 71 72 72 73 74
24 21 19 18 18 18 18 14 11 8 6 9 11 17 13 25 21 21 34 43 33 29 24 26 29 33 35 26 28 28 29 28 36 57 63 61 60 63 64 67 69 70 71 72 72 72 72 71 72 72 72 72 73 74 73 73 70 71 72 73 74 74 75
25 24 21 21 19 17 17 17 17 13 10 13 13 11 10 12 27 25 25 37 32 27 26 26 28 31 26 27 31 32 32 26 44 56 63 58 59 60 62 65 67 69 70 72 73 74 74 73 73 72 73 73 73 73 72 72 73 71 73 74 75 74 74
31 28 27 25 23 19 18 16 15 14 11 8 8 8 11 21 18 15 15 26 30 30 32 30 32 32 27 29 21 24 37 33 30 45 57 59 59 60 62 66 66 69 70 71 73 73 74 73 74 73 74 74 73 71 71 71 74 72 72 75 75 74 74
31 30 29 26 24 21 18 18 16 15 13 14 10 15 14 18 23 23 19 23 22 24 31 29 30 31 33 29 29 32 32 29 37 54 58 59 62 61 61 64 66 68 68 70 72 73 72 73 74 74 75 74 73 72 72 72 72 73 73 74 74 75 75
33 30 26 25 23 22 20 20 16 16 16 16 14 14 17 17 16 20 20 18 21 25 31 26 27 23 27 26 30 32 35 56 60 60 61 61 63 64 65 66 67 66 66 70 72 71 71 72 73 73 75 73 74 74 74 74 74 73 73 72 74 75 75
33 32 29 27 27 21 20 24 17 19 15 15 16 13 15 16 20 18 21 22 28 28 25 24 28 30 30 31 43 54 58 58 58 58 58 59 62 64 64 65 65 67 68 69 69 70 72 72 71 72 74 74 74 74 73 74 74 75 75 74 74 75 75
32 34 34 31 26 25 31 23 21 19 17 16 16 19 14 17 21 22 25 28 30 30 27 34 39 41 59 58 57 52 52 58 55 56 55 61 63 63 65 67 65 67 67 68 70 70 69 68 71 73 72 73 73 72 74 73 75 75 75 75 75 75 74
35 36 33 29 27 33 26 23 27 25 18 16 18 19 20 17 15 24 21 24 26 31 31 32 49 56 52 53 57 58 54 55 55 52 51 56 59 60 63 66 67 68 66 68 67 69 69 71 70 69 70 70 70 71 72 74 75 76 76 75 74 74 73
34 37 32 29 36 31 31 32 32 27 27 25 23 19 22 23 22 22 24 28 26 24 25 44 48 50 44 47 48 50 49 54 55 51 52 53 57 59 63 61 66 68 68 68 67 68 68 68 68 67 67 67 67 68 71 73 76 75 75 75 74 74 72
36 34 34 34 32 31 31 35 44 45 43 44 46 46 26 30 20 24 27 29 32 27 37 49 49 50 45 39 36 51 53 54 56 54 55 58 61 61 62 68 67 68 66 65 66 65 67 66 65 65 65 67 70 71 73 74 74 75 75 74 73 73 71
35 36 34 33 33 34 49 48 44 44 45 43 48 37 24 29 31 27 29 30 31 33 44 50 50 44 32 32 38 58 59 56 55 54 54 54 58 62 64 64 63 62 65 67 66 68 68 63 67 68 70 71 72 73 73 74 74 74 74 73 72 72 71
37 36 34 33 36 34 48 45 44 43 44 45 43 32 25 34 42 43 42 32 39 46 49 49 48 42 32 29 49 55 58 60 61 61 60 61 61 62 63 63 66 69 70 69 68 67 66 71 72 73 73 73 73 73 73 73 72 72 73 73 73 72 71
35 36 34 35 37 47 45 45 44 44 45 44 39 28 23 52 50 50 50 45 48 51 50 50 43 51 57 60 60 58 59 61 62 62 62 63 63 64 64 67 69 70 69 67 63 63 72 74 73 74 74 73 73 74 73 72 71 71 72 73 72 71 71
31 33 33 34 37 44 46 48 43 46 42 38 31 51 56 57 55 53 50 47 51 52 53 46 57 58 59 59 59 60 61 62 64 63 63 63 64 65 68 69 65 60 58 64 66 70 74 74 74 74 74 74 74 73 71 70 70 71 72 73 72 71 70
36 39 36 35 34 47 47 47 45 47 41 46 53 54 55 52 53 52 51 51 52 55 57 58 58 56 55 58 60 61 62 61 60 61 61 62 61 62 63 64 61 58 62 64 68 71 71 72 71 72 72 74 73 72 71 71 71 72 72 72 72 71 70
32 35 37 36 46 49 48 48 47 52 53 53 54 53 53 55 56 56 55 56 56 55 55 54 54 55 56 57 58 56 54 54 57 58 58 57 56 52 50 50 54 60 70 72 72 71 69 69 69 71 74 74 73 73 73 73 72 73 73 73 72 70 69
37 38 40 49 50 48 48 50 51 51 51 52 52 52 51 51 50 54 55 57 56 56 56 55 54 54 54 54 54 55 55 55 57 56 53 52 52 51 52 49 55 58 66 71 70 69 69 71 73 75 74 74 73 74 74 73 73 72 72 72 70 69 69
50 50 50 50 49 49 48 47 48 47 48 50 52 52 52 54 55 56 54 52 53 55 56 55 55 57 59 60 58 57 57 58 61 64 64 62 57 55 58 64 61 57 58 61 64 66 68 69 70 72 71 71 74 72 72 72 72 73 72 71 69 68 68
42 41 48 49 50 51 51 47 47 48 48 50 52 55 55 55 55 57 59 59 59 58 61 60 58 57 58 59 61 63 64 64 65 64 65 65 66 65 64 67 66 59 57 58 62 63 65 65 64 64 68 71 73 72 72 72 72 72 71 70 69 69 68
41 47 50 50 50 52 51 49 48 49 50 49 50 53 54 54 54 54 55 57 58 59 59 60 60 59 58 58 60 60 62 63 65 66 66 67 66 67 67 68 67 64 60 60 62 65 67 67 67 66 66 68 70 71 70 70 70 70 70 69 68 68 67
51 52 51 49 49 50 52 50 52 52 51 50 51 49 48 48 49 50 50 51 51 52 53 56 57 57 57 56 58 57 60 63 65 66 66 67 68 68 67 68 67 65 64 63 65 66 67 67 68 70 71 71 70 71 69 68 70 68 68 67 68 67 66
44 46 49 50 47 47 50 50 52 52 52 50 49 51 50 48 47 47 47 48 49 48 49 50 51 52 52 52 53 51 54 57 61 64 64 63 63 65 66 67 68 68 67 66 66 67 68 68 68 69 69 69 69 67 67 68 69 69 68 67 67 65 65
41 49 50 55 55 54 55 55 55 53 52 50 50 51 51 50 49 48 48 47 49 49 50 49 49 51 51 50 48 46 47 52 55 57 60 61 61 61 64 66 66 67 68 68 68 68 68 68 67 67 68 67 68 67 68 69 68 68 68 67 65 64 65
52 50 52 53 54 53 54 54 55 54 54 53 48 53 54 53 52 50 50 50 49 49 50 51 51 51 51 51 49 50 50 50 51 49 51 55 59 59 59 62 66 67 67 67 67 67 68 67 67 68 66 67 69 67 68 68 68 69 67 65 63 61 61
50 52 54 54 54 55 56 55 56 55 55 56 53 52 52 51 51 53 52 51 49 47 48 47 49 51 50 49 51 52 52 51 51 48 50 52 51 57 58 59 61 64 66 66 66 66 67 68 67 67 67 68 67 66 67 66 66 67 67 66 63 62 64